Starlink 1627

operational
NORAD ID: 46168 Int'l Des: 2020-057 Owner: SPXS Country: US Constellation: starlink
LEOCIRCULARSTARLINK_TYPE

Über Starlink 1627

Beschreibung wird geladen...

Live-Position

3D-Globus wird geladen...

Nächste Überflüge

Höhenverlauf

Altitude vs Time

uPlot chart will show altitude changes over time

Zweizeiliger Elementsatz

1 46168U 20057BD 25307.72212806 .00107730 00000-0 32134-2 0 9997
2 46168 53.0525 109.4598 0000463 268.8167 91.2781 15.33808681287811
Epoch: 3. Nov. 2025 • Age: 15 hours

Aktueller Status

Höhe 467.8 km
Geschwindigkeit 7.63 km/s
Subsatellitenpunkt -14.29°S, 129.74°E
Startdatum 18. Aug. 2020
Alter 5.2 years
Typ internet

Technische Details

Klassifizierung Payload
Masse 260.00 kg
Trockenmasse 248.00 kg
Gesamtmasse 260.00 kg
Länge 0.20 m
Durchmesser 2.80 m
Spannweite 9.00 m
Form Box + pan
Hersteller SPXS
Bus-Typ Starlink
Phasenstatus In Orbit
Besitzer/Staat SPXS/US

Große Konstellationen

Loading constellations...